FW4685 Weather Reports


Display with metric or nautical units.
time (UTC)temp
F
wind
direction
speed
MPH
gust
MPH
rain 1hr
in
rain 24hr
in
rain mn
in
humidity
%
barometer
mb
20260508153021 69 39 0.0 7.0 0.00 0.00 0.00 49 1017.8
20260508152032 70 37 0.0 2.0 0.00 0.00 0.00 48 1017.9
20260508151028 69 56 2.0 7.0 0.00 0.00 0.00 46 1017.9
20260508150021 68 118 1.0 5.0 0.00 0.00 0.00 47 1017.9
20260508145034 67 34 1.0 7.0 0.00 0.00 0.00 47 1017.9
20260508144028 66 62 2.0 7.0 0.00 0.00 0.00 50 1017.9
20260508143022 65 73 0.0 5.0 0.00 0.00 0.00 53 1018.2
20260508142034 65 74 1.0 7.0 0.00 0.00 0.00 52 1018.2
20260508141028 64 68 1.0 5.0 0.00 0.00 0.00 52 1018.2
20260508140041 64 75 1.0 5.0 0.00 0.00 0.00 53 1018.3
20260508135033 65 156 1.0 5.0 0.00 0.00 0.00 54 1018.3
20260508134029 64 69 0.0 5.0 0.00 0.00 0.00 54 1018.3
20260508133042 64 37 1.0 2.0 0.00 0.00 0.00 54 1018.3
20260508132034 63 133 1.0 7.0 0.00 0.00 0.00 55 1018.5
20260508131028 62 75 1.0 5.0 0.00 0.00 0.00 59 1018.6
20260508130041 62 79 1.0 5.0 0.00 0.00 0.00 60 1018.6
20260508125033 62 61 0.0 5.0 0.00 0.00 0.00 60 1018.7
20260508124028 62 73 1.0 5.0 0.00 0.00 0.00 59 1018.6
20260508123021 62 138 1.0 2.0 0.00 0.00 0.00 60 1018.6
20260508122032 62 87 0.0 2.0 0.00 0.00 0.00 60 1018.5
20260508121028 61 119 0.0 2.0 0.00 0.00 0.00 59 1018.6
20260508120022 61 81 0.0 2.0 0.00 0.00 0.00 60 1018.8
20260508115112 61 95 0.0 2.0 0.00 0.00 0.00 61 1018.7
20260508114049 60 111 1.0 5.0 0.00 0.00 0.00 62 1018.7
20260508113021 60 135 1.0 5.0 0.00 0.00 0.00 62 1018.7
20260508112033 60 149 1.0 7.0 0.00 0.00 0.00 63 1018.7
20260508111028 60 87 1.0 7.0 0.00 0.00 0.00 63 1018.7
20260508110021 60 125 1.0 5.0 0.00 0.00 0.00 63 1018.6
20260508105032 60 147 1.0 5.0 0.00 0.00 0.00 63 1018.7
20260508104029 60 141 0.0 5.0 0.00 0.00 0.00 63 1018.7
20260508103021 60 149 0.0 2.0 0.00 0.00 0.00 63 1018.7
20260508102032 60 164 1.0 5.0 0.00 0.00 0.00 63 1018.6
20260508101028 61 116 0.0 2.0 0.00 0.00 0.00 62 1018.6
20260508100042 61 132 1.0 7.0 0.00 0.00 0.00 60 1018.6
20260508095033 62 146 1.0 7.0 0.00 0.00 0.00 59 1018.7
20260508094027 62 158 2.0 10.0 0.00 0.00 0.00 57 1018.4
20260508093022 62 164 2.0 7.0 0.00 0.00 0.00 57 1018.4
20260508092032 62 107 1.0 5.0 0.00 0.00 0.00 59 1018.4
20260508091027 61 136 1.0 5.0 0.00 0.00 0.00 60 1018.3
20260508090020 61 96 1.0 5.0 0.00 0.00 0.00 63 1018.4
20260508085032 60 133 1.0 5.0 0.00 0.00 0.00 65 1018.6
20260508084028 59 151 2.0 10.0 0.00 0.00 0.00 68 1018.6
20260508083022 58 76 1.0 5.0 0.00 0.00 0.00 71 1018.6
20260508082032 56 84 1.0 5.0 0.00 0.00 0.00 74 1018.5
20260508081048 55 26 1.0 7.0 0.00 0.00 0.00 75 1018.5
20260508080021 54 100 1.0 5.0 0.00 0.00 0.00 77 1018.6
20260508075032 54 71 0.0 5.0 0.00 0.00 0.00 79 1018.5
20260508074027 53 40 1.0 7.0 0.00 0.00 0.00 81 1018.5
20260508073023 52 76 0.0 2.0 0.00 0.00 0.00 82 1018.4
20260508072041 51 81 0.0 2.0 0.00 0.00 0.00 85 1018.3
20260508071052 50 74 0.0 2.0 0.00 0.00 0.00 86 1018.5
20260508070047 50 66 0.0 2.0 0.00 0.00 0.00 87 1018.3
20260508065021 49 9 0.0 2.0 0.00 0.00 0.00 88 1018.4
20260508064031 49 62 0.0 0.0 0.00 0.00 0.00 89 1018.5
20260508063048 48 22 0.0 0.0 0.00 0.00 0.00 91 1018.4
20260508062021 48 16 0.0 0.0 0.00 0.00 0.00 93 1018.4
20260508061021 47 47 0.0 0.0 0.00 0.00 0.00 94 1018.4
20260508060054 47 76 0.0 0.0 0.00 0.00 0.00 95 1018.3
20260508055108 47 33 0.0 0.0 0.00 0.00 0.00 97 1018.3
20260508054021 47 17 0.0 0.0 0.00 0.00 0.00 97 1018.2
20260508053032 46 23 0.0 0.0 0.00 0.00 0.00 97 1018.1
20260508052028 46 23 0.0 0.0 0.00 0.00 0.00 98 1018.1
20260508051022 46 18 0.0 0.0 0.00 0.00 0.00 98 1018.0
20260508050034 46 25 0.0 0.0 0.00 0.00 0.00 98 1018.0
20260508045028 45 16 0.0 0.0 0.00 0.00 0.00 98 1018.0
20260508044019 45 16 0.0 0.0 0.00 0.00 0.00 98 1017.9
20260508043021 45 20 0.0 0.0 0.00 0.00 0.00 98 1017.8
20260508042019 45 3 0.0 0.0 0.00 0.00 0.00 98 1017.9
20260508041031 45 11 0.0 0.0 0.00 0.00 0.00 98 1017.8
20260508040028 45 8 0.0 0.0 0.00 0.00 0.00 97 1017.9
20260508035027 44 8 0.0 0.0 0.00 0.00 0.00 97 1017.9
20260508034020 44 1 0.0 0.0 0.00 0.00 0.00 97 1017.8
20260508033031 44 8 0.0 0.0 0.00 0.00 0.00 97 1017.8
20260508032028 44 12 0.0 0.0 0.00 0.00 0.00 97 1017.9
20260508031019 44 8 0.0 0.0 0.00 0.00 0.00 97 1017.9
20260508030032 43 17 0.0 0.0 0.00 0.00 0.00 97 1017.8
20260508025028 43 22 0.0 0.0 0.00 0.00 0.00 97 1018.0
20260508024019 43 32 0.0 0.0 0.00 0.00 0.00 97 1017.9
20260508023041 42 307 0.0 0.0 0.00 0.00 0.00 97 1017.9
20260508022031 42 349 0.0 0.0 0.00 0.00 0.00 97 1017.9
20260508021027 42 5 0.0 0.0 0.00 0.00 0.00 97 1017.9
20260508020023 42 5 0.0 0.0 0.00 0.00 0.00 96 1017.8
20260508015019 42 15 0.0 0.0 0.00 0.00 0.00 96 1017.9
20260508014020 42 16 0.0 0.0 0.00 0.00 0.00 96 1017.9
20260508013031 43 20 0.0 0.0 0.00 0.00 0.00 96 1017.9
20260508011027 43 23 0.0 0.0 0.00 0.00 0.00 95 1018.0
20260508010027 43 24 0.0 0.0 0.00 0.00 0.00 94 1018.1
20260508005019 44 9 0.0 0.0 0.00 0.00 0.00 94 1018.2
20260508004031 44 4 0.0 0.0 0.00 0.00 0.00 94 1018.1
20260508003027 45 18 0.0 0.0 0.00 0.00 0.00 93 1018.2
20260508002039 45 21 0.0 0.0 0.00 0.00 0.00 93 1018.3
20260508001051 45 7 0.0 0.0 0.00 0.00 0.00 93 1018.3
20260508000027 45 357 0.0 0.0 0.00 0.00 0.00 92 1018.3
20260507235039 46 21 0.0 0.0 0.00 0.00 0.00 91 1018.3
20260507234019 46 351 0.0 0.0 0.00 0.00 0.00 91 1018.4
20260507233051 47 16 0.0 0.0 0.00 0.00 0.00 90 1018.3
20260507232027 47 16 0.0 0.0 0.00 0.00 0.00 90 1018.4
20260507231021 48 2 0.0 0.0 0.00 0.00 0.00 89 1018.3
20260507230021 48 6 0.0 0.0 0.00 0.00 0.00 88 1018.3
20260507225052 49 3 0.0 0.0 0.00 0.00 0.00 86 1018.4
20260507224027 49 19 0.0 0.0 0.00 0.00 0.00 86 1018.3
20260507223019 50 74 0.0 0.0 0.00 0.00 0.00 86 1018.4
20260507222031 51 358 0.0 0.0 0.00 0.00 0.00 84 1018.5
20260507221032 51 77 0.0 0.0 0.00 0.00 0.00 83 1018.6
20260507220027 51 173 0.0 0.0 0.00 0.00 0.00 82 1018.5
20260507215019 52 134 0.0 2.0 0.00 0.00 0.00 81 1018.5
20260507214031 52 128 0.0 2.0 0.00 0.00 0.00 81 1018.7
20260507213027 52 37 0.0 0.0 0.00 0.00 0.00 80 1018.6
20260507212022 52 145 0.0 2.0 0.00 0.00 0.00 80 1018.5
20260507211031 52 157 0.0 5.0 0.00 0.00 0.00 80 1018.6
20260507210031 53 161 0.0 0.0 0.00 0.00 0.00 78 1018.5
20260507204023 53 29 0.0 0.0 0.00 0.00 0.00 77 1018.2
20260507203019 53 42 0.0 2.0 0.00 0.00 0.00 77 1018.1
20260507202031 54 70 0.0 2.0 0.00 0.00 0.00 76 1018.0
20260507201027 54 54 0.0 0.0 0.00 0.00 0.00 76 1017.8
20260507200043 54 28 0.0 0.0 0.00 0.00 0.00 75 1017.7
20260507195019 55 45 0.0 0.0 0.00 0.00 0.00 74 1017.7
20260507194031 55 39 0.0 0.0 0.00 0.00 0.00 73 1017.4
20260507193031 55 40 0.0 0.0 0.00 0.00 0.00 72 1017.4
20260507192028 56 156 0.0 2.0 0.00 0.00 0.00 70 1017.4
20260507191019 56 165 0.0 5.0 0.00 0.00 0.00 69 1017.4
20260507190031 56 179 1.0 5.0 0.00 0.00 0.00 69 1017.4
20260507185026 57 149 1.0 5.0 0.00 0.00 0.00 68 1017.4
20260507184024 57 140 1.0 7.0 0.00 0.00 0.00 67 1017.3
20260507183033 57 163 1.0 5.0 0.00 0.00 0.00 66 1017.3
20260507182027 57 150 1.0 5.0 0.00 0.00 0.00 65 1017.2
20260507181034 57 124 1.0 5.0 0.00 0.00 0.00 62 1017.1
20260507180031 58 148 1.0 7.0 0.00 0.00 0.00 62 1017.0
20260507175027 58 146 1.0 7.0 0.00 0.00 0.00 62 1017.0
20260507174019 58 157 1.0 7.0 0.00 0.00 0.00 62 1017.0
20260507173031 58 156 1.0 5.0 0.00 0.00 0.00 61 1016.9
20260507172026 59 150 1.0 5.0 0.00 0.00 0.00 61 1016.9
20260507171019 59 131 1.0 10.0 0.00 0.00 0.00 60 1016.9
20260507170059 60 135 0.0 5.0 0.00 0.00 0.00 60 1017.0
20260507165031 61 137 1.0 5.0 0.00 0.00 0.00 59 1016.8
20260507164107 62 157 1.0 7.0 0.00 0.00 0.00 56 1016.9
20260507163059 62 112 1.0 5.0 0.00 0.00 0.00 54 1016.9
20260507162031 63 147 2.0 7.0 0.00 0.00 0.00 54 1016.8
20260507161027 64 147 2.0 10.0 0.00 0.00 0.00 54 1017.0
20260507160022 64 139 2.0 7.0 0.00 0.00 0.00 52 1016.9
20260507155031 64 160 2.0 7.0 0.00 0.00 0.00 45 1016.9
20260507154027 63 157 2.0 7.0 0.00 0.00 0.00 47 1016.9